Location: Newark
(49.5647°N, 8.2922°E)
Time: 21:35:34
(UTC+00:00)

S-56A Canister/Altair - Visible Passes

Search period start: 18 February 2020 00:00
Search period end: 28 February 2020 00:00
Orbit: 633 x 2499 km, 38.9° (Epoch: 17 February)

Date Brightness Start Highest point End Pass type
(mag) Time Alt. Az. Time Alt. Az. Time Alt. Az.
18 Feb 10.9 17:52:01 10° W 18:00:08 22° SW 18:06:30 10° S visible
19 Feb 10.9 17:17:57 10° W 17:27:22 25° SW 17:34:37 10° S visible
21 Feb 11.5 18:22:31 10° WSW 18:23:47 10° SW 18:25:01 10° SW visible
22 Feb 11.5 17:46:02 10° WSW 17:51:07 14° SW 17:55:36 10° SSW visible
